Temp
71 71 70 71 71 72 74 74 74 75 75 75 74 74 73 73 73 73 73 73 72 71 71 72 73 73 74 73 73 74 74 74 74 74 74 74 73 73 73 73 73 72 73 73 73 73 73 73 74 74 74 74 74 69 69 72 72 72 71 71 71 72
70 70 70 70 70 71 72 73 71 72 73 74 74 74 72 71 73 69 73 70 68 70 69 71 72 74 72 74 74 74 74 74 74 74 73 73 73 73 73 73 73 73 72 72 73 68 68 72 73 74 73 73 70 67 69 72 71 71 71 70 70 73
70 69 69 69 69 69 70 69 69 71 73 74 74 72 71 71 68 69 68 68 69 68 69 70 71 73 73 73 73 74 74 74 74 74 74 73 73 73 73 73 73 73 72 72 69 66 66 66 67 73 74 70 68 68 70 71 71 70 70 70 71 74
70 69 68 67 68 67 68 68 68 70 70 70 70 70 69 69 68 67 67 67 67 68 69 69 76 78 75 72 72 74 74 74 74 74 74 72 73 73 73 73 73 73 71 69 65 65 67 67 66 67 66 66 67 68 71 70 71 70 70 73 72 74
70 69 67 67 68 67 68 68 68 67 66 67 69 68 68 67 66 67 68 68 68 69 68 68 69 70 70 70 69 69 70 69 69 69 72 67 66 68 68 66 67 68 66 66 68 67 68 68 68 67 67 67 69 69 72 71 71 70 69 70 70 74
70 69 68 67 67 69 68 68 66 66 66 66 68 68 68 67 67 67 68 68 68 67 67 68 68 68 68 68 69 69 68 69 68 67 69 66 66 65 65 67 67 67 67 68 68 68 69 70 69 67 68 68 69 70 71 71 70 69 68 68 71 74
69 68 68 69 68 68 67 68 67 67 66 66 67 67 67 68 68 68 67 68 67 67 67 67 66 67 67 68 67 67 66 66 65 65 66 66 66 66 66 66 66 67 68 68 69 70 71 72 72 71 69 70 68 66 68 70 69 68 67 68 71 74
69 68 68 69 69 68 67 67 68 69 67 68 67 67 67 67 68 67 68 68 68 67 67 66 67 66 67 67 66 67 66 66 66 65 66 65 65 65 65 66 66 67 68 69 70 71 71 74 73 72 71 66 65 66 65 69 69 69 68 68 70 72
69 69 69 69 68 66 66 66 67 66 66 69 66 66 67 68 67 68 68 68 68 66 66 66 66 66 66 66 66 65 65 65 65 65 66 65 65 66 65 66 65 65 65 67 68 68 70 71 71 72 67 66 67 67 66 68 69 69 68 68 68 71
69 69 70 69 67 66 66 65 66 65 65 68 65 66 68 67 68 68 67 68 68 66 66 66 66 67 66 66 66 65 65 65 66 64 65 64 65 65 65 65 65 65 66 67 67 67 68 70 72 67 68 66 65 64 64 64 68 69 69 68 68 69
70 71 70 67 66 67 66 66 66 66 66 66 66 67 68 69 68 68 67 67 68 68 68 68 67 66 67 66 66 65 65 65 65 65 65 65 65 65 64 64 64 65 65 66 65 66 69 69 68 67 66 66 65 65 66 66 66 70 70 68 67 68
70 70 68 68 68 67 67 67 67 66 66 66 67 67 68 68 68 67 68 67 67 68 68 67 67 67 67 66 66 65 66 65 65 66 66 65 65 65 65 65 66 66 65 65 65 67 68 67 67 66 66 66 66 66 66 66 67 67 67 68 68 68
71 70 69 68 68 67 67 67 66 66 67 68 68 68 67 67 67 67 67 67 67 68 67 67 66 67 67 65 65 65 65 66 67 66 67 66 66 66 66 66 66 66 66 65 65 65 67 66 66 66 66 66 66 67 67 65 66 67 67 68 67 67
70 70 70 69 68 67 67 66 66 66 68 68 68 67 67 66 67 67 68 68 68 68 68 67 67 65 65 63 63 64 64 65 66 66 66 65 65 65 65 65 65 66 66 65 64 64 65 64 64 65 65 66 65 66 66 67 66 66 66 66 66 67
69 68 68 69 69 67 66 66 66 66 68 68 68 67 66 67 67 68 68 68 68 69 68 68 68 65 64 63 63 64 64 65 66 66 65 65 65 65 66 65 65 65 65 64 64 64 64 64 63 64 64 65 65 66 65 65 67 68 68 67 66 66
68 66 67 68 67 68 67 67 67 69 68 68 67 67 67 68 69 69 69 69 69 69 69 68 68 66 64 64 63 63 64 64 66 66 65 65 65 65 65 65 65 64 63 63 64 62 63 63 64 64 64 65 65 65 64 64 66 67 68 68 67 65
68 67 67 68 67 67 67 67 67 67 67 67 67 67 68 69 69 69 68 68 69 69 68 68 67 67 66 65 65 64 64 64 65 65 64 64 64 65 64 65 63 64 63 63 63 63 62 63 63 63 64 64 65 65 65 64 65 67 67 66 65 65
68 68 67 67 66 65 66 66 65 65 67 67 67 68 68 69 69 69 69 69 69 69 68 68 67 66 65 65 65 64 63 64 64 64 64 64 63 63 64 64 63 63 63 62 62 62 62 63 64 63 63 63 64 64 64 65 65 67 66 67 66 65
67 66 66 66 66 65 65 64 64 65 65 66 67 67 68 68 69 69 69 70 70 69 68 68 68 66 65 65 64 64 63 64 64 65 64 63 62 63 63 63 63 63 63 63 62 62 62 62 63 63 63 63 64 64 64 65 64 65 66 66 66 67
66 66 66 65 64 63 63 63 64 64 65 66 67 67 68 68 69 69 71 70 70 69 69 68 67 66 65 64 63 63 64 64 64 64 63 62 61 63 63 62 63 63 63 63 62 62 62 62 62 62 62 62 63 63 64 64 64 64 64 65 65 64
65 65 65 64 63 63 63 63 64 65 66 66 67 68 69 69 70 70 71 71 71 69 68 68 68 67 66 67 64 63 64 63 64 64 62 61 61 62 62 62 63 62 63 62 61 62 62 62 61 59 60 61 61 63 63 64 63 64 65 64 64 64
65 65 65 64 64 64 65 65 63 64 63 64 67 68 67 68 69 70 69 69 70 70 69 68 68 67 66 65 64 64 64 63 63 63 64 63 62 63 62 62 63 62 63 62 61 63 63 61 58 57 57 56 59 60 63 62 63 64 64 64 64 64
65 65 65 66 65 65 65 65 64 64 68 66 67 69 70 69 70 70 69 70 70 69 69 68 68 67 67 66 64 64 64 63 63 65 63 62 62 62 62 63 63 62 61 61 61 63 62 61 58 59 58 57 55 55 59 60 62 63 64 62 62 63
66 66 66 66 66 65 64 63 63 66 67 68 67 68 68 67 69 70 69 69 67 68 69 68 69 68 68 67 65 64 64 64 64 64 63 63 62 62 62 62 63 62 63 61 60 60 62 62 61 60 56 54 55 55 54 56 57 60 63 63 63 63
66 65 65 65 65 64 64 63 65 68 69 68 68 67 66 65 66 67 69 67 69 68 69 69 69 68 68 66 65 65 64 65 64 64 65 63 63 63 63 62 62 62 61 60 58 58 60 62 62 62 58 57 54 54 53 56 58 58 61 61 63 63
65 65 65 65 65 64 63 63 63 65 64 64 64 65 63 63 65 66 67 67 67 68 68 68 68 69 68 66 65 65 65 65 64 65 65 64 65 64 64 63 63 63 62 61 60 59 58 61 61 63 62 60 58 54 55 58 56 52 59 61 61 63
65 64 65 65 64 64 62 62 63 64 65 64 64 64 64 64 65 65 67 66 67 67 68 67 67 66 66 66 65 64 65 65 65 64 66 65 64 64 65 66 65 63 63 62 61 59 59 59 61 61 63 62 62 61 61 58 53 56 54 58 60 60
65 64 65 65 64 63 62 61 61 61 62 63 64 64 65 65 65 67 67 66 67 66 67 67 66 66 66 67 66 66 66 65 64 65 65 64 64 65 66 67 66 65 64 63 62 60 59 60 60 58 61 61 62 62 61 61 61 57 57 54 56 61
64 64 64 64 64 62 62 62 61 62 61 62 65 66 65 66 65 66 65 64 65 66 65 65 66 66 66 66 66 66 64 64 64 65 66 65 64 66 66 64 64 64 62 62 63 61 60 60 60 60 59 59 60 60 60 61 61 61 55 56 54 56
63 64 64 64 63 62 63 62 61 62 63 64 65 66 65 64 64 64 63 63 63 64 64 64 65 64 65 67 64 64 66 64 64 66 66 65 67 66 65 65 65 64 63 62 62 62 61 60 61 61 60 59 57 57 58 58 58 59 59 58 55 57
64 64 64 63 63 62 63 62 62 63 64 65 65 64 63 63 63 62 64 63 63 63 63 63 64 63 64 65 64 64 63 64 64 64 65 65 64 66 63 64 65 65 64 63 62 62 62 62 61 60 60 59 58 59 57 55 58 58 57 56 58 59
62 62 63 63 63 62 62 62 63 64 64 66 66 65 64 63 62 61 62 62 61 62 62 63 62 63 63 63 63 63 63 64 64 63 63 63 64 63 64 64 64 64 64 63 62 62 61 60 60 60 59 59 59 58 57 58 58 58 58 58 60 59
61 61 62 62 62 62 62 62 63 64 65 66 67 66 65 64 62 62 62 62 62 62 61 62 61 63 64 64 62 62 63 62 63 64 63 64 63 63 63 63 64 63 63 62 61 62 61 61 61 60 59 59 60 60 59 59 60 60 61 62 62 60
60 61 61 62 62 61 61 62 63 64 66 67 67 67 66 66 64 64 63 63 63 62 61 62 62 61 62 64 63 62 61 61 61 61 62 62 62 63 62 65 63 62 62 63 62 62 62 61 61 60 61 59 60 60 60 61 60 61 60 61 59 59
61 60 60 60 60 60 60 61 63 64 65 67 67 66 66 66 65 64 63 64 63 62 63 62 61 63 63 61 61 63 63 61 62 62 62 63 64 61 61 63 62 61 61 61 61 61 62 62 62 62 60 60 60 60 59 61 60 62 63 62 61 60
62 61 60 60 60 60 60 61 63 64 65 66 66 66 65 66 65 65 64 63 63 63 63 62 63 63 62 63 62 62 61 61 61 61 60 61 62 62 61 61 61 60 61 65 61 60 60 61 61 60 60 60 61 60 61 61 62 60 62 62 62 61
61 61 61 60 60 61 61 61 63 63 64 65 66 65 65 64 65 65 64 64 64 63 63 63 63 62 62 60 60 61 61 60 60 61 61 61 61 60 60 60 59 59 59 60 60 60 59 60 59 59 59 60 59 59 59 61 61 61 61 61 61 60
MSLP
1013.94 1014.10 1014.46 1014.70 1014.94 1015.10 1015.26 1015.50 1015.74 1015.94 1016.10 1016.30 1016.46 1016.58 1016.74 1016.78 1016.74 1016.70 1016.66 1016.86 1017.02 1017.10 1017.18 1017.26 1017.42 1017.58 1017.70 1017.74 1017.82 1017.98 1018.02 1018.10 1018.18 1018.26 1018.34 1018.42 1018.54 1018.58 1018.66 1018.70 1018.78 1018.86 1018.94 1018.98 1019.02 1019.06 1019.06 1019.02 1018.86 1018.86 1018.86 1018.82 1018.78 1019.10 1019.38 1019.34 1019.42 1019.66 1019.70 1019.78 1019.90 1020.02
1014.10 1014.26 1014.62 1014.90 1015.10 1015.30 1015.54 1015.82 1016.18 1016.30 1016.46 1016.58 1016.62 1016.66 1016.70 1016.70 1016.70 1016.74 1016.82 1017.06 1017.14 1017.10 1017.22 1017.30 1017.46 1017.42 1017.54 1017.66 1017.82 1017.94 1018.02 1018.10 1018.22 1018.30 1018.42 1018.50 1018.58 1018.62 1018.70 1018.78 1018.86 1018.90 1018.98 1019.06 1019.06 1019.14 1019.18 1019.10 1018.90 1018.86 1018.90 1018.86 1018.90 1019.22 1019.42 1019.46 1019.62 1019.70 1019.78 1019.94 1019.98 1020.06
1014.22 1014.46 1014.82 1015.10 1015.34 1015.58 1015.82 1016.18 1016.54 1016.62 1016.66 1016.70 1016.66 1016.62 1016.62 1016.74 1016.82 1016.78 1017.06 1017.14 1017.14 1017.14 1017.22 1017.34 1017.42 1017.26 1017.38 1017.66 1017.86 1017.98 1018.10 1018.18 1018.26 1018.38 1018.46 1018.58 1018.70 1018.74 1018.82 1018.86 1018.86 1018.90 1018.98 1019.02 1019.10 1019.22 1019.22 1019.26 1019.10 1018.90 1018.94 1018.94 1019.02 1019.38 1019.54 1019.62 1019.66 1019.70 1019.90 1019.98 1020.06 1020.10
1014.30 1014.62 1014.98 1015.30 1015.50 1015.82 1016.06 1016.38 1016.54 1016.66 1016.86 1016.82 1016.74 1016.74 1016.86 1016.94 1016.94 1016.94 1017.18 1017.18 1017.18 1017.18 1017.26 1017.34 1017.14 1017.10 1017.42 1017.74 1017.98 1018.10 1018.18 1018.26 1018.34 1018.46 1018.62 1018.78 1018.86 1018.90 1018.90 1018.90 1018.90 1018.90 1018.94 1019.06 1019.10 1019.18 1019.22 1019.26 1019.26 1019.10 1019.06 1019.06 1019.10 1019.42 1019.78 1019.82 1019.70 1019.86 1019.98 1020.06 1020.18 1020.18
1014.26 1014.58 1014.94 1015.30 1015.58 1016.02 1016.26 1016.58 1016.86 1016.98 1016.82 1016.70 1016.82 1016.90 1016.98 1017.06 1017.10 1017.10 1017.30 1017.30 1017.26 1017.34 1017.50 1017.42 1017.34 1017.46 1017.74 1017.94 1018.14 1018.22 1018.26 1018.34 1018.50 1018.74 1018.82 1019.10 1019.22 1019.22 1019.14 1019.14 1019.02 1019.02 1019.10 1019.18 1019.22 1019.22 1019.26 1019.30 1019.30 1019.30 1019.18 1019.10 1019.14 1019.50 1019.86 1020.02 1019.94 1019.98 1020.10 1020.18 1020.26 1020.26
1014.18 1014.58 1014.98 1015.38 1015.74 1016.06 1016.50 1016.78 1017.06 1016.74 1016.78 1016.94 1016.90 1016.98 1016.90 1017.02 1017.14 1017.26 1017.46 1017.46 1017.54 1017.78 1017.86 1017.70 1017.62 1017.78 1017.94 1018.10 1018.30 1018.38 1018.42 1018.46 1018.62 1018.90 1018.94 1019.22 1019.30 1019.34 1019.38 1019.30 1019.18 1019.18 1019.22 1019.26 1019.30 1019.22 1019.18 1019.22 1019.30 1019.42 1019.34 1019.22 1019.38 1020.06 1020.14 1020.18 1020.10 1020.18 1020.22 1020.26 1020.26 1020.30
1014.42 1014.78 1015.22 1015.50 1015.86 1016.26 1016.58 1016.58 1016.62 1016.74 1016.94 1017.06 1016.86 1016.90 1016.94 1017.02 1017.30 1017.42 1017.50 1017.70 1017.94 1018.02 1017.98 1017.98 1018.02 1018.02 1018.18 1018.22 1018.38 1018.42 1018.46 1018.50 1018.70 1018.94 1019.02 1019.14 1019.26 1019.30 1019.38 1019.38 1019.26 1019.18 1019.22 1019.26 1019.26 1019.22 1019.14 1018.90 1018.98 1019.26 1019.34 1019.50 1020.30 1020.54 1020.62 1020.58 1020.38 1020.38 1020.38 1020.38 1020.38 1020.38
1014.50 1014.90 1015.42 1015.70 1016.02 1016.42 1016.46 1016.06 1016.26 1016.42 1016.70 1016.78 1016.82 1016.98 1017.10 1017.18 1017.38 1017.58 1017.70 1017.86 1017.94 1017.98 1018.02 1018.10 1018.18 1018.18 1018.22 1018.22 1018.34 1018.34 1018.42 1018.54 1018.66 1018.86 1018.94 1019.06 1019.30 1019.38 1019.46 1019.42 1019.30 1019.26 1019.34 1019.34 1019.34 1019.22 1018.94 1018.62 1018.74 1019.06 1019.70 1020.22 1020.06 1020.10 1020.30 1020.54 1020.66 1020.46 1020.46 1020.54 1020.54 1020.54
1014.62 1015.06 1015.42 1015.70 1016.18 1016.18 1015.86 1015.86 1016.18 1016.46 1016.70 1016.78 1017.06 1017.14 1017.26 1017.34 1017.58 1017.74 1017.86 1017.90 1017.90 1018.02 1017.98 1018.14 1018.26 1018.26 1018.18 1018.34 1018.34 1018.34 1018.42 1018.58 1018.70 1018.86 1018.98 1019.18 1019.30 1019.46 1019.46 1019.38 1019.34 1019.42 1019.46 1019.46 1019.46 1019.42 1019.10 1018.98 1018.70 1019.14 1019.94 1019.94 1020.14 1020.38 1020.74 1020.94 1020.90 1020.62 1020.58 1020.66 1020.66 1020.66
1014.70 1014.94 1015.30 1015.74 1016.06 1015.86 1015.78 1015.94 1016.26 1016.50 1016.86 1016.98 1017.22 1017.18 1017.26 1017.50 1017.62 1017.74 1017.94 1017.90 1017.90 1018.02 1018.10 1018.14 1018.18 1018.14 1018.22 1018.34 1018.34 1018.34 1018.46 1018.62 1018.78 1018.86 1019.02 1019.30 1019.34 1019.42 1019.46 1019.42 1019.46 1019.58 1019.62 1019.62 1019.62 1019.58 1019.46 1019.26 1019.34 1019.98 1020.30 1020.94 1021.74 1021.90 1020.94 1020.66 1020.70 1020.82 1020.82 1020.82 1020.78 1020.78
1014.62 1014.78 1015.18 1015.74 1015.86 1015.54 1015.70 1016.06 1016.38 1016.62 1016.82 1017.06 1017.22 1017.26 1017.38 1017.46 1017.58 1017.70 1017.86 1017.90 1017.94 1017.98 1018.06 1018.10 1018.06 1018.06 1018.14 1018.26 1018.34 1018.34 1018.50 1018.62 1018.82 1018.94 1019.10 1019.34 1019.34 1019.34 1019.38 1019.50 1019.62 1019.66 1019.66 1019.66 1019.82 1019.74 1019.70 1019.82 1020.02 1020.14 1020.26 1020.58 1020.90 1020.82 1020.38 1020.70 1021.02 1020.94 1020.90 1020.82 1020.94 1021.02
1014.50 1014.78 1015.26 1015.62 1015.62 1015.74 1015.94 1016.18 1016.34 1016.58 1016.86 1017.06 1017.26 1017.42 1017.46 1017.54 1017.70 1017.74 1017.78 1017.94 1017.98 1017.98 1017.98 1018.02 1017.94 1018.06 1018.18 1018.30 1018.38 1018.42 1018.50 1018.66 1018.86 1019.02 1019.14 1019.26 1019.30 1019.26 1019.38 1019.50 1019.58 1019.58 1019.66 1019.66 1019.86 1019.86 1019.90 1020.06 1020.38 1020.42 1020.18 1020.42 1020.78 1020.94 1020.86 1021.26 1021.42 1021.18 1021.18 1021.22 1021.30 1021.26
1014.50 1014.86 1015.18 1015.34 1015.54 1015.66 1015.86 1016.10 1016.34 1016.58 1016.86 1017.06 1017.30 1017.38 1017.54 1017.62 1017.70 1017.70 1017.78 1017.86 1017.94 1017.98 1017.98 1017.94 1017.90 1018.02 1018.18 1018.34 1018.50 1018.58 1018.66 1018.78 1018.86 1018.98 1019.10 1019.18 1019.30 1019.30 1019.42 1019.54 1019.62 1019.58 1019.70 1019.74 1019.86 1020.10 1020.10 1020.18 1020.50 1020.54 1020.26 1020.26 1020.38 1020.66 1020.90 1021.14 1021.42 1021.50 1021.38 1021.30 1021.30 1021.30
1014.58 1014.94 1015.10 1015.18 1015.34 1015.58 1015.90 1016.22 1016.50 1016.78 1016.94 1017.10 1017.30 1017.42 1017.50 1017.58 1017.66 1017.74 1017.82 1017.94 1017.98 1017.98 1017.94 1017.82 1017.94 1018.18 1018.22 1018.42 1018.62 1018.62 1018.78 1018.86 1018.86 1018.94 1019.02 1019.18 1019.38 1019.46 1019.58 1019.58 1019.70 1019.70 1019.94 1020.02 1020.14 1020.30 1020.34 1020.46 1020.54 1020.50 1020.50 1020.30 1020.18 1020.42 1020.94 1021.14 1021.46 1021.58 1021.38 1021.34 1021.30 1021.30
1014.82 1015.22 1015.34 1015.38 1015.38 1015.82 1016.18 1016.42 1016.74 1016.98 1017.06 1017.14 1017.22 1017.34 1017.42 1017.58 1017.70 1017.74 1017.86 1017.94 1017.94 1017.90 1017.82 1017.74 1017.90 1018.22 1018.34 1018.38 1018.58 1018.70 1018.78 1018.90 1018.86 1018.98 1019.18 1019.30 1019.50 1019.62 1019.66 1019.74 1019.74 1019.94 1020.14 1020.26 1020.26 1020.30 1020.34 1020.42 1020.54 1020.58 1020.66 1020.46 1020.50 1020.58 1020.82 1020.98 1021.26 1021.42 1021.34 1021.26 1021.18 1021.22
1015.18 1015.74 1015.74 1015.50 1015.62 1015.94 1016.34 1016.66 1016.82 1016.86 1016.98 1017.06 1017.14 1017.26 1017.38 1017.46 1017.54 1017.62 1017.74 1017.82 1017.82 1017.78 1017.74 1017.70 1017.86 1018.10 1018.34 1018.26 1018.46 1018.66 1018.74 1018.78 1018.98 1019.10 1019.30 1019.42 1019.58 1019.82 1019.90 1019.98 1019.98 1019.98 1020.22 1020.42 1020.38 1020.46 1020.34 1020.54 1020.66 1020.70 1020.58 1020.54 1020.66 1020.86 1021.02 1020.98 1021.46 1021.38 1021.22 1021.14 1021.18 1021.26
1015.34 1015.54 1015.70 1015.70 1015.74 1015.94 1016.34 1016.74 1016.86 1016.90 1016.94 1016.98 1017.14 1017.22 1017.22 1017.26 1017.38 1017.46 1017.54 1017.66 1017.66 1017.66 1017.66 1017.66 1017.74 1017.94 1018.14 1018.14 1018.30 1018.58 1018.78 1018.90 1019.06 1019.22 1019.38 1019.50 1019.70 1019.78 1019.94 1020.18 1020.26 1020.10 1020.06 1020.38 1020.54 1020.54 1020.54 1020.66 1020.82 1020.82 1020.78 1020.58 1020.58 1020.66 1020.70 1021.22 1021.54 1021.30 1021.22 1021.30 1021.22 1021.26
1015.54 1015.70 1015.82 1015.86 1015.90 1016.06 1016.46 1016.70 1016.82 1016.86 1016.90 1016.98 1017.06 1016.98 1017.02 1017.10 1017.26 1017.34 1017.42 1017.54 1017.54 1017.50 1017.50 1017.58 1017.70 1017.86 1017.98 1018.02 1018.22 1018.50 1018.70 1018.90 1019.10 1019.30 1019.50 1019.66 1019.86 1019.82 1019.94 1020.10 1020.38 1020.22 1020.14 1020.34 1020.54 1020.42 1020.34 1020.58 1020.86 1021.06 1021.02 1020.74 1020.62 1020.70 1020.94 1021.14 1021.50 1021.58 1021.54 1021.46 1021.34 1021.34
1015.62 1015.90 1016.06 1016.06 1016.10 1016.34 1016.54 1016.70 1016.78 1016.82 1016.90 1016.94 1016.94 1016.90 1016.86 1017.06 1017.10 1017.18 1017.34 1017.38 1017.38 1017.38 1017.42 1017.54 1017.62 1017.78 1017.94 1018.02 1018.26 1018.58 1018.90 1019.06 1019.22 1019.42 1019.66 1019.90 1019.98 1019.98 1020.02 1020.06 1020.18 1020.30 1020.22 1020.26 1020.30 1020.30 1020.34 1020.54 1021.02 1021.26 1021.22 1021.10 1020.74 1020.86 1021.34 1021.78 1021.90 1022.38 1021.86 1021.62 1021.46 1021.50
1015.62 1015.90 1016.10 1016.26 1016.42 1016.66 1016.74 1016.86 1017.02 1017.06 1017.10 1017.06 1017.02 1017.02 1016.90 1016.90 1016.94 1017.10 1017.18 1017.26 1017.30 1017.38 1017.46 1017.54 1017.66 1017.78 1017.94 1018.10 1018.34 1018.70 1018.98 1019.14 1019.34 1019.54 1019.82 1020.06 1020.18 1020.14 1020.22 1020.18 1020.14 1020.22 1020.38 1020.38 1020.34 1020.46 1020.46 1020.78 1021.22 1021.50 1021.58 1021.54 1021.38 1021.46 1021.94 1022.26 1022.66 1022.90 1022.42 1021.86 1021.86 1021.82
1015.58 1015.74 1016.02 1016.34 1016.58 1016.66 1016.78 1016.86 1016.86 1016.86 1016.82 1016.78 1016.78 1016.78 1016.86 1016.86 1016.90 1017.02 1017.10 1017.14 1017.22 1017.30 1017.46 1017.58 1017.66 1017.86 1018.06 1018.14 1018.38 1018.66 1018.90 1019.14 1019.30 1019.62 1019.82 1020.02 1020.14 1020.22 1020.18 1020.10 1020.10 1020.14 1020.38 1020.62 1020.70 1020.54 1020.54 1020.70 1021.06 1021.66 1021.74 1021.70 1021.70 1022.10 1022.54 1022.58 1022.34 1022.30 1022.26 1022.46 1022.42 1021.98
1015.54 1015.74 1015.82 1015.94 1016.10 1016.14 1015.94 1015.98 1016.10 1016.30 1016.34 1016.42 1016.54 1016.70 1016.94 1016.90 1016.94 1016.90 1016.90 1016.98 1017.02 1017.14 1017.38 1017.58 1017.74 1017.90 1018.06 1018.18 1018.42 1018.66 1018.90 1019.14 1019.30 1019.54 1019.70 1019.82 1020.02 1020.18 1020.18 1020.18 1020.14 1020.34 1020.30 1020.54 1020.70 1020.46 1020.30 1020.38 1020.98 1021.34 1021.66 1021.94 1021.90 1022.02 1022.26 1022.38 1022.46 1022.54 1022.34 1022.18 1022.18 1022.26
1015.42 1015.54 1015.66 1015.62 1015.74 1015.74 1015.66 1015.66 1015.74 1015.82 1015.86 1016.18 1016.10 1016.22 1016.38 1016.50 1016.50 1016.66 1016.78 1016.86 1017.02 1017.18 1017.38 1017.58 1017.70 1017.86 1018.06 1018.22 1018.38 1018.66 1018.98 1019.18 1019.30 1019.38 1019.58 1019.82 1019.94 1020.18 1020.22 1020.18 1020.18 1020.34 1020.54 1020.50 1020.58 1020.34 1020.14 1020.02 1020.86 1021.18 1021.18 1021.54 1022.30 1022.58 1022.74 1022.66 1022.50 1022.14 1021.94 1022.34 1022.50 1022.38
1015.30 1015.42 1015.46 1015.54 1015.54 1015.46 1015.54 1015.66 1015.54 1015.46 1015.54 1015.74 1016.26 1016.18 1016.22 1016.30 1016.46 1016.66 1016.94 1016.94 1017.06 1017.18 1017.30 1017.50 1017.58 1017.78 1017.98 1018.26 1018.46 1018.74 1018.98 1019.18 1019.26 1019.26 1019.42 1019.66 1019.78 1019.94 1020.06 1020.14 1020.10 1020.22 1020.26 1020.82 1020.78 1020.58 1020.10 1020.02 1020.38 1020.70 1021.70 1021.74 1022.14 1022.18 1023.26 1023.46 1023.30 1022.42 1022.10 1022.26 1022.66 1022.58
1015.38 1015.50 1015.50 1015.54 1015.50 1015.58 1015.62 1015.54 1015.42 1015.46 1015.50 1015.90 1016.06 1016.30 1016.58 1016.82 1016.78 1016.94 1017.06 1017.10 1017.06 1017.06 1017.18 1017.38 1017.54 1017.78 1018.02 1018.26 1018.46 1018.70 1018.90 1019.10 1019.22 1019.18 1019.22 1019.38 1019.54 1019.70 1019.82 1019.90 1019.90 1020.14 1020.26 1020.42 1020.78 1020.74 1020.38 1020.10 1020.34 1020.30 1020.82 1021.50 1022.06 1022.42 1022.62 1023.22 1023.26 1023.10 1022.38 1022.34 1022.46 1022.54
1015.74 1015.74 1015.66 1015.54 1015.42 1015.54 1015.54 1015.50 1015.66 1015.90 1016.34 1016.62 1016.90 1016.90 1017.22 1017.30 1017.26 1017.22 1017.30 1016.98 1017.02 1017.02 1017.10 1017.34 1017.62 1017.82 1017.98 1018.18 1018.42 1018.58 1018.78 1018.98 1019.10 1019.06 1019.02 1019.06 1019.22 1019.50 1019.70 1019.82 1019.82 1019.98 1020.22 1020.14 1020.30 1020.66 1020.74 1020.34 1020.26 1020.26 1020.22 1020.34 1020.58 1021.30 1022.18 1022.62 1022.54 1023.98 1022.86 1022.66 1022.58 1022.50
1015.74 1015.74 1015.50 1015.34 1015.42 1015.54 1015.66 1015.66 1015.82 1015.94 1016.14 1016.50 1016.82 1016.86 1016.74 1016.86 1016.94 1017.02 1017.02 1017.18 1017.18 1017.14 1017.30 1017.46 1017.62 1017.74 1017.94 1018.10 1018.30 1018.54 1018.66 1018.74 1018.90 1018.90 1018.82 1018.94 1019.14 1019.30 1019.42 1019.58 1019.66 1019.82 1020.06 1020.18 1020.26 1020.74 1020.82 1020.74 1020.50 1020.42 1020.26 1020.18 1020.26 1020.42 1020.66 1021.58 1022.58 1023.06 1023.78 1023.30 1022.86 1022.78
1015.38 1015.34 1015.18 1015.18 1015.34 1015.34 1015.46 1015.70 1015.94 1016.14 1016.34 1016.62 1016.62 1016.90 1016.90 1016.98 1016.94 1016.98 1017.06 1017.18 1017.22 1017.30 1017.22 1017.34 1017.58 1017.74 1017.82 1017.90 1018.14 1018.38 1018.46 1018.58 1018.74 1018.90 1018.86 1018.90 1018.98 1019.06 1019.22 1019.34 1019.54 1019.74 1019.94 1020.06 1020.14 1020.38 1020.78 1020.74 1020.86 1020.94 1020.54 1020.50 1020.58 1020.62 1020.70 1020.82 1021.34 1021.94 1022.66 1023.62 1023.70 1022.98
1014.98 1015.02 1015.02 1014.90 1014.98 1015.14 1015.18 1015.46 1015.66 1015.86 1016.26 1016.46 1016.62 1016.82 1016.94 1017.02 1017.14 1017.06 1017.18 1017.14 1017.30 1017.42 1017.46 1017.50 1017.62 1017.86 1017.94 1017.98 1017.98 1018.10 1018.22 1018.34 1018.38 1018.62 1018.74 1018.82 1018.86 1018.94 1019.14 1019.38 1019.50 1019.70 1019.86 1020.02 1020.06 1020.26 1020.50 1020.74 1020.78 1020.90 1020.82 1020.94 1020.90 1021.14 1021.14 1021.22 1021.38 1021.66 1022.42 1023.22 1023.78 1023.46
1014.78 1014.78 1014.70 1014.66 1014.66 1014.94 1015.02 1015.38 1015.66 1015.74 1015.94 1016.38 1016.58 1016.78 1016.90 1017.14 1017.14 1017.10 1017.34 1017.38 1017.42 1017.50 1017.62 1017.82 1017.90 1017.98 1018.02 1018.06 1018.10 1018.06 1018.18 1018.34 1018.38 1018.50 1018.66 1018.78 1018.86 1019.14 1019.34 1019.34 1019.66 1019.62 1019.70 1019.82 1019.98 1020.14 1020.38 1020.62 1020.66 1020.70 1020.74 1020.86 1021.22 1021.42 1021.46 1021.58 1021.74 1021.98 1022.38 1022.34 1023.10 1023.54
1014.46 1014.54 1014.54 1014.54 1014.62 1014.86 1014.98 1015.26 1015.46 1015.66 1015.98 1016.34 1016.50 1016.78 1017.14 1017.30 1017.26 1017.34 1017.46 1017.54 1017.46 1017.54 1017.74 1017.94 1018.02 1018.10 1018.10 1018.14 1018.18 1018.22 1018.30 1018.38 1018.46 1018.54 1018.66 1018.78 1018.90 1019.14 1019.74 1019.54 1019.74 1019.86 1019.98 1019.94 1020.06 1020.22 1020.50 1020.66 1020.66 1020.74 1020.82 1020.90 1021.06 1021.06 1021.18 1021.54 1021.86 1021.98 1022.22 1022.78 1023.06 1023.30
1015.42 1015.18 1014.94 1014.74 1014.78 1014.90 1015.02 1015.34 1015.46 1015.58 1015.94 1016.10 1016.26 1016.70 1017.02 1017.30 1017.42 1017.50 1017.46 1017.50 1017.58 1017.70 1017.86 1017.94 1018.06 1018.18 1018.30 1018.26 1018.34 1018.46 1018.46 1018.50 1018.58 1018.62 1018.74 1018.82 1018.98 1019.10 1019.22 1019.30 1019.66 1019.90 1019.98 1020.06 1020.10 1020.34 1020.54 1020.70 1020.62 1020.70 1020.90 1020.90 1020.86 1020.86 1021.06 1021.18 1021.42 1021.74 1022.14 1022.50 1022.54 1023.06
1015.66 1015.50 1015.34 1015.06 1014.94 1015.06 1015.34 1015.54 1015.62 1015.62 1015.78 1015.86 1016.02 1016.42 1016.86 1017.18 1017.34 1017.46 1017.42 1017.58 1017.74 1017.86 1017.98 1018.22 1018.30 1018.38 1018.38 1018.46 1018.58 1018.70 1018.70 1018.78 1018.82 1018.78 1018.86 1018.94 1019.06 1019.14 1019.30 1019.50 1019.74 1019.98 1020.06 1020.14 1020.18 1020.22 1020.46 1020.58 1020.54 1020.58 1020.78 1020.78 1020.74 1020.86 1021.02 1021.10 1021.26 1021.58 1021.86 1022.14 1022.34 1022.90
1015.58 1015.54 1015.38 1015.30 1015.22 1015.34 1015.54 1015.70 1015.74 1015.54 1015.70 1015.82 1016.10 1016.38 1016.78 1017.10 1017.38 1017.42 1017.50 1017.58 1017.66 1017.78 1018.06 1018.30 1018.42 1018.46 1018.50 1018.54 1018.62 1018.78 1018.86 1018.94 1018.90 1018.90 1019.02 1019.18 1019.22 1019.34 1019.46 1019.70 1019.86 1020.06 1020.10 1020.06 1020.02 1020.10 1020.22 1020.38 1020.46 1020.50 1020.58 1020.82 1020.86 1020.94 1021.02 1021.02 1021.22 1021.42 1021.86 1022.14 1022.50 1022.58
1015.54 1015.58 1015.54 1015.54 1015.58 1015.66 1015.78 1015.98 1015.74 1015.58 1015.70 1015.82 1016.10 1016.46 1016.78 1017.02 1017.30 1017.46 1017.58 1017.62 1017.74 1017.86 1018.06 1018.30 1018.42 1018.50 1018.54 1018.62 1018.82 1018.94 1019.06 1019.10 1019.06 1019.06 1019.18 1019.38 1019.54 1019.66 1019.74 1019.86 1019.98 1020.14 1020.14 1020.14 1020.14 1020.14 1020.22 1020.26 1020.42 1020.54 1020.66 1020.78 1020.90 1021.02 1021.02 1021.06 1021.22 1021.46 1021.58 1021.66 1021.90 1022.22
1015.34 1015.42 1015.58 1015.66 1015.78 1015.94 1016.02 1016.26 1015.78 1015.82 1015.86 1015.94 1016.14 1016.46 1016.82 1017.02 1017.14 1017.26 1017.42 1017.62 1017.90 1017.98 1018.10 1018.22 1018.30 1018.42 1018.62 1018.74 1018.94 1019.10 1019.18 1019.26 1019.22 1019.22 1019.34 1019.54 1019.70 1019.86 1019.98 1020.14 1020.26 1020.30 1020.30 1020.14 1020.18 1020.22 1020.22 1020.22 1020.30 1020.38 1020.50 1020.58 1020.74 1020.90 1020.90 1020.98 1021.18 1021.30 1021.34 1021.38 1021.46 1021.82
1015.10 1015.34 1015.54 1015.74 1015.86 1015.98 1016.10 1016.26 1015.90 1015.98 1016.06 1016.10 1016.30 1016.62 1016.86 1017.02 1017.10 1017.18 1017.46 1017.78 1017.98 1018.10 1018.10 1018.18 1018.42 1018.54 1018.78 1018.90 1019.02 1019.18 1019.34 1019.46 1019.46 1019.42 1019.50 1019.66 1019.82 1020.06 1020.22 1020.34 1020.38 1020.38 1020.38 1020.22 1020.06 1020.02 1019.98 1020.14 1020.34 1020.38 1020.38 1020.38 1020.46 1020.66 1020.78 1020.86 1020.94 1021.02 1021.18 1021.34 1021.54 1021.74
Wind_Speed
7 7 7 7 7 7 10 15 14 17 17 15 14 15 15 14 12 11 10 11 9 6 6 6 7 6 10 6 8 9 9 10 9 8 8 7 7 6 6 6 5 4 4 4 3 3 4 5 7 7 6 6 7 4 4 5 7 6 6 6 6 6
6 8 7 6 5 5 7 11 7 8 8 10 12 13 10 7 8 4 9 8 5 5 3 5 6 9 6 7 7 9 9 9 9 9 8 7 7 6 5 4 3 2 2 2 3 1 2 5 8 7 5 7 4 2 3 6 6 6 7 6 5 8
5 7 8 7 6 5 7 8 6 5 6 9 8 7 5 6 4 4 4 5 4 3 4 5 5 7 7 8 7 9 9 8 9 9 8 7 6 4 3 3 2 2 1 1 0 1 2 3 5 7 5 4 4 3 3 5 6 6 6 6 5 11
6 7 8 6 6 6 7 6 4 5 5 4 4 5 3 4 3 1 4 3 3 2 4 4 9 12 11 6 5 8 9 9 9 8 7 4 4 3 4 3 3 4 2 1 2 2 3 3 3 4 2 3 4 1 4 3 6 6 6 6 6 12
5 7 8 7 7 6 6 5 5 6 4 3 5 4 4 3 2 2 3 3 2 1 2 2 4 6 6 5 3 3 3 2 1 1 3 2 1 2 3 3 2 2 2 2 2 2 2 3 3 3 3 3 3 3 6 4 6 6 5 5 5 10
6 7 7 7 7 7 6 6 6 5 6 3 6 5 4 4 4 2 3 3 1 3 3 3 4 5 5 4 3 3 1 1 1 2 2 3 1 1 3 4 3 3 2 3 3 3 3 4 3 4 4 2 2 8 4 4 5 5 5 5 6 10
6 6 7 7 7 7 6 6 7 7 7 6 5 6 5 4 3 2 3 3 3 3 3 3 4 5 4 4 4 3 3 3 3 3 2 1 1 1 2 3 4 4 3 3 2 3 5 8 6 6 5 2 12 7 5 3 3 5 5 5 5 10
7 6 7 8 8 7 6 7 7 8 7 7 6 5 3 2 4 4 3 3 3 4 4 4 4 4 3 3 3 3 3 3 3 3 2 1 1 2 2 2 1 2 4 4 5 5 5 1 7 5 6 9 6 6 3 2 1 5 5 5 4 7
7 7 7 8 9 7 7 7 6 5 5 6 3 3 4 4 4 4 4 2 3 3 4 4 4 4 3 3 3 3 3 3 2 2 3 2 2 3 3 1 0 1 3 4 4 5 7 6 3 9 8 6 6 4 6 5 1 4 4 4 4 6
8 8 7 8 7 7 7 6 6 5 4 4 2 3 4 5 4 5 4 3 3 3 3 5 4 4 4 4 3 3 2 2 4 2 3 1 2 3 3 2 0 2 3 3 5 6 6 8 13 12 8 9 11 5 2 2 1 3 4 4 4 5
8 8 7 9 8 8 7 6 5 5 5 4 3 2 4 4 5 4 4 3 4 4 3 3 4 4 3 3 3 2 1 2 2 2 1 2 1 2 1 1 1 2 3 4 4 4 7 10 11 9 8 8 8 7 6 0 3 3 4 4 5 4
9 8 8 9 10 9 8 6 6 6 6 5 4 3 4 4 4 4 4 3 3 4 3 3 4 3 3 4 3 2 1 2 2 3 3 2 1 1 1 0 1 1 2 3 4 6 7 8 9 8 5 6 4 2 1 4 4 3 3 4 4 4
9 9 9 9 8 7 7 6 6 5 5 5 5 3 4 5 5 4 3 2 3 3 2 3 3 4 3 3 2 0 1 1 3 3 4 3 2 1 1 1 1 3 3 4 5 6 6 6 8 7 5 4 3 4 4 4 4 4 4 4 4 4
8 9 8 7 6 6 6 5 5 5 5 6 4 5 5 5 4 4 3 3 3 3 3 4 3 3 3 3 2 1 1 2 2 3 2 2 3 2 2 2 2 4 5 5 6 5 6 7 5 6 6 4 2 2 4 5 4 1 4 4 4 4
8 8 7 7 6 6 6 5 5 5 5 5 5 5 5 5 5 5 5 5 4 4 4 5 3 4 2 2 2 1 0 1 3 3 2 2 4 3 4 4 3 5 5 4 5 4 6 6 6 8 6 4 3 3 3 4 2 2 5 5 4 4
10 9 6 6 5 7 7 6 5 5 6 5 5 5 5 5 5 6 6 5 5 4 4 4 4 4 4 3 3 3 0 1 1 3 2 1 2 4 4 4 3 3 4 3 4 4 3 6 5 7 5 5 3 4 4 3 0 4 4 4 4 4
10 10 8 6 5 5 7 6 6 6 6 6 6 5 5 5 5 5 5 6 6 5 3 4 3 4 4 3 2 2 2 2 1 3 2 1 3 4 3 3 3 3 4 4 4 3 1 5 6 6 4 4 2 3 6 4 3 4 4 4 4 4
9 9 7 6 5 5 6 6 5 6 5 6 5 5 5 5 6 5 5 5 5 5 5 4 3 3 4 2 3 3 2 2 1 3 2 1 1 3 3 4 4 2 2 3 3 4 1 4 6 6 4 2 3 3 3 3 0 0 4 4 3 4
10 9 7 6 5 6 6 5 4 5 4 4 4 4 5 5 6 5 6 6 5 4 3 3 3 5 4 2 3 3 2 2 2 3 3 3 3 3 3 3 4 3 3 3 3 3 3 4 6 6 5 3 3 4 4 5 5 5 2 3 3 4
9 8 7 6 6 6 6 6 6 3 4 5 5 5 5 5 5 6 6 5 5 4 3 2 3 5 4 2 3 3 3 3 3 2 3 3 2 3 2 2 4 4 4 3 2 2 3 6 7 6 4 2 3 4 3 3 4 4 3 1 3 3
7 7 8 7 6 7 6 6 4 7 7 7 7 5 5 5 5 6 6 6 6 5 4 4 4 5 5 4 4 4 4 3 2 2 2 2 2 2 2 2 3 2 4 3 1 1 2 5 7 4 3 3 4 4 3 7 6 5 2 5 3 0
6 6 6 7 7 6 6 7 6 6 4 5 5 7 6 6 6 5 5 5 4 5 5 5 4 4 4 4 4 5 5 4 2 2 3 3 3 3 3 2 3 2 2 3 2 3 4 2 3 3 4 2 4 5 8 6 3 4 2 2 1 2
7 7 6 6 5 4 3 3 2 4 7 4 4 7 6 6 5 6 6 6 6 5 6 5 5 5 5 3 2 3 4 3 3 4 4 3 4 4 4 3 4 4 3 1 1 1 3 1 4 3 2 5 2 5 5 5 6 4 1 2 4 2
7 6 6 5 5 4 5 5 3 5 5 6 6 5 6 5 6 6 5 4 4 5 5 5 4 5 4 4 3 3 4 4 4 3 5 5 4 4 3 3 3 3 4 5 2 1 2 1 3 6 2 1 3 4 6 5 4 1 3 0 4 2
6 5 5 5 6 5 5 6 7 7 8 8 6 6 6 5 4 4 4 4 4 5 6 7 5 5 4 6 4 4 4 5 5 5 4 5 5 5 4 3 4 4 3 4 2 1 1 2 2 1 5 4 2 2 2 6 6 2 3 3 2 2
5 3 4 5 6 4 4 8 8 8 8 7 6 6 6 6 6 6 6 4 3 3 4 6 7 5 5 6 6 5 5 5 5 5 5 4 4 4 3 3 3 5 4 3 5 4 0 2 2 3 1 2 3 3 7 9 6 2 3 2 1 1
6 5 5 5 4 4 6 5 4 5 7 7 7 4 4 4 5 4 5 4 4 4 5 6 5 5 5 5 4 4 4 5 5 4 4 4 4 4 5 4 2 4 4 4 4 3 6 2 1 1 2 3 2 2 6 6 4 8 5 2 2 1
8 8 7 6 5 5 7 6 6 5 5 4 5 5 5 4 4 5 6 5 5 4 4 4 4 4 3 3 4 5 5 4 4 3 3 4 4 3 2 3 6 3 5 5 5 6 5 3 4 1 2 3 4 4 3 6 5 6 7 7 3 3
10 9 8 9 9 6 7 7 7 7 6 3 5 6 5 5 5 5 6 3 5 5 5 4 4 4 2 3 4 4 4 3 3 5 3 3 2 2 1 2 3 2 4 4 4 4 5 5 3 4 2 2 5 4 5 4 5 5 5 8 4 4
12 10 10 11 10 8 8 7 7 7 8 5 5 6 6 5 4 4 4 4 5 5 5 6 5 4 5 5 3 4 5 4 4 6 4 3 6 5 3 3 1 2 2 3 4 6 6 5 4 4 3 4 3 3 4 4 4 5 4 3 9 6
13 10 11 11 10 10 9 8 8 9 8 7 7 8 7 5 4 4 5 4 5 5 5 4 5 4 4 4 4 3 4 4 4 3 3 4 4 7 5 4 6 4 3 4 3 4 5 5 5 5 4 5 5 6 6 4 6 4 4 4 5 5
1 4 7 9 9 10 9 7 8 9 8 8 9 8 8 6 4 4 4 4 4 6 4 4 4 5 4 4 4 4 4 5 5 4 4 4 4 3 3 4 6 5 4 3 3 5 6 6 5 5 5 5 5 4 3 5 5 6 8 7 7 6
4 3 4 5 8 9 7 7 7 8 6 7 10 9 8 6 4 4 4 4 6 6 5 5 5 4 1 1 2 3 4 5 5 5 4 5 4 4 4 4 4 4 5 4 5 6 6 5 6 6 6 5 6 5 5 4 5 8 8 6 6 7
4 1 4 5 6 7 6 5 5 6 6 7 9 8 7 7 5 5 4 5 6 6 6 6 5 4 2 5 4 3 3 4 3 4 4 4 4 4 4 4 4 5 4 4 4 4 6 5 4 4 4 5 4 5 5 5 6 7 6 6 6 8
5 2 3 3 3 4 3 4 4 3 5 7 8 7 7 6 6 5 4 4 4 5 7 6 6 5 5 4 4 5 5 4 4 4 4 5 5 4 4 3 3 3 3 3 3 3 4 5 5 5 4 4 4 4 5 5 5 5 5 6 6 6
6 5 2 1 2 1 0 3 2 2 4 6 6 6 5 5 5 5 4 5 5 6 6 6 5 5 5 6 6 5 4 3 3 3 4 4 5 5 4 4 3 3 3 2 4 4 4 5 5 5 4 4 4 4 4 5 4 5 6 6 6 5
5 4 4 2 3 1 1 2 1 1 4 6 7 6 6 5 6 5 5 6 7 6 6 6 5 5 5 4 5 5 5 4 4 4 5 4 5 5 4 4 3 3 3 2 3 4 4 6 5 6 5 5 4 5 5 4 4 4 4 4 3 5
Wind_Direction
123 125 112 105 109 116 123 115 114 115 115 117 118 117 114 119 123 128 134 127 112 107 124 130 130 133 131 121 125 132 131 133 139 151 156 158 171 179 175 178 181 176 171 190 201 209 208 238 265 277 296 308 317 24 45 92 114 122 118 115 117 123
127 123 105 95 92 102 116 113 99 100 109 117 120 123 127 135 136 146 137 117 122 123 122 134 141 137 127 126 133 137 140 144 151 159 161 165 176 187 183 174 183 199 181 195 246 244 270 255 265 272 295 306 323 41 59 121 121 124 114 115 124 128
137 115 102 95 99 88 94 90 96 110 112 121 120 120 130 130 143 160 116 127 127 135 151 139 145 133 126 133 136 145 148 156 164 165 168 173 179 194 197 193 227 246 238 235 260 239 256 252 265 276 292 313 302 52 77 122 114 109 115 122 122 133
143 115 110 110 109 95 90 99 121 106 85 76 105 115 111 131 153 141 111 124 133 168 149 142 142 132 131 121 133 147 159 168 174 172 171 164 193 221 241 237 242 256 268 240 197 208 231 245 247 272 267 280 295 83 108 112 107 110 119 124 127 135
147 126 127 125 123 109 100 105 67 67 100 134 115 111 128 145 140 156 119 123 139 153 59 50 66 80 97 112 117 133 160 159 126 97 145 50 13 333 306 318 311 305 299 277 272 245 230 250 221 228 232 238 277 44 115 112 110 117 114 114 122 128
148 140 131 128 123 117 105 110 107 141 153 146 135 146 169 164 165 127 80 81 61 41 31 44 62 85 87 103 130 139 120 165 115 75 53 78 31 338 314 324 336 335 307 277 264 264 256 232 213 199 214 217 299 36 74 101 111 112 119 119 120 123
142 134 125 120 112 107 127 129 146 165 154 175 162 164 175 172 119 88 55 77 82 71 64 61 67 76 92 102 110 121 130 123 121 120 105 119 206 276 286 302 315 303 307 286 275 270 252 237 212 181 196 90 62 79 20 347 99 115 111 114 119 119
148 132 121 117 117 118 128 159 161 164 166 168 161 164 163 128 100 86 72 80 109 112 106 104 107 109 132 109 130 160 159 145 153 139 127 118 243 257 237 259 288 344 345 345 339 321 305 222 164 160 79 77 117 108 106 8 42 110 115 115 111 111
134 130 127 123 117 130 159 163 158 153 164 169 141 127 135 107 94 98 100 101 131 132 127 129 136 150 142 138 165 183 168 164 141 136 129 144 185 230 235 237 48 340 348 345 343 351 353 357 24 74 96 116 108 87 57 25 16 121 121 109 103 109
136 141 134 113 124 153 166 162 152 153 120 140 100 134 127 115 128 135 130 136 135 133 136 143 160 166 152 162 173 195 174 145 138 129 110 135 181 169 197 230 132 29 19 354 12 2 7 15 41 59 44 45 44 23 287 228 196 123 97 99 109 107
143 138 123 118 145 171 165 157 145 134 143 137 165 145 126 139 143 135 137 151 138 150 165 168 168 169 163 157 175 177 172 123 108 123 137 148 177 160 145 122 73 50 22 19 34 16 26 52 73 84 86 105 141 170 199 214 7 84 129 125 98 82
145 135 126 148 157 164 155 151 150 137 142 139 146 169 148 125 115 117 132 154 148 155 166 174 176 173 159 155 168 162 167 144 157 150 159 155 192 118 103 88 89 87 69 45 55 45 54 70 82 93 108 123 130 92 78 41 360 62 89 71 70 76
143 142 150 156 153 157 136 139 134 131 128 145 164 154 121 122 117 119 118 124 147 159 187 186 180 157 137 108 89 56 350 225 170 160 163 167 162 141 118 96 106 85 64 46 57 58 68 75 91 101 102 97 105 130 122 85 28 5 94 107 111 110
138 134 139 144 150 141 118 123 125 127 139 153 164 137 130 121 126 140 151 163 181 190 182 194 172 115 115 98 91 23 357 349 92 100 84 78 80 112 84 95 81 80 57 53 57 60 81 75 81 96 100 126 157 145 98 106 127 222 110 118 134 130
122 116 124 149 149 123 118 134 134 146 154 146 140 130 134 139 159 168 164 180 182 190 195 199 176 137 121 121 130 117 27 295 96 90 84 61 63 52 56 58 60 74 64 62 72 66 96 101 97 84 88 90 95 90 84 97 138 154 128 139 136 150
130 125 151 141 127 127 134 134 147 149 129 133 130 142 151 164 172 172 171 170 177 187 204 198 166 136 133 171 155 156 143 52 59 95 86 68 63 75 64 69 40 72 90 62 81 67 79 102 95 93 84 75 73 97 108 78 183 144 150 133 129 126
124 123 128 129 122 114 113 125 123 121 130 134 144 158 173 160 160 166 164 159 170 184 195 190 185 132 142 166 153 136 130 114 83 105 89 79 77 104 106 96 66 67 110 107 86 92 79 101 95 94 100 98 109 158 124 135 214 173 133 130 139 119
110 115 123 126 121 107 101 104 114 122 128 138 152 168 186 166 166 179 151 163 168 183 178 188 156 121 119 110 107 111 103 98 75 85 86 67 114 95 98 111 110 88 96 107 110 121 127 112 108 101 97 104 100 80 91 91 253 130 127 137 141 128
108 113 119 118 105 93 97 93 98 118 129 140 161 194 196 174 175 160 149 159 157 169 130 129 126 110 115 115 104 103 106 113 97 111 92 72 63 77 75 80 113 95 66 101 129 131 138 101 89 93 81 55 69 46 32 30 33 312 91 150 147 122
111 120 124 117 115 114 122 132 130 132 135 170 185 192 197 175 153 138 148 149 153 149 140 126 105 115 127 135 126 119 115 102 97 89 108 92 74 85 96 101 118 126 111 80 58 109 118 102 94 98 109 105 98 73 36 68 62 55 336 320 58 51
123 131 133 132 138 147 139 142 145 163 161 173 179 177 158 143 133 140 146 150 148 147 143 142 117 127 138 142 134 116 112 107 107 114 115 131 151 133 180 172 150 139 132 125 89 242 144 133 124 92 95 110 97 119 97 74 142 165 93 28 56 179
135 137 139 146 162 167 167 168 160 175 170 171 142 117 111 114 126 130 131 133 131 131 135 135 130 123 127 133 132 118 124 142 137 130 147 145 149 171 194 188 146 131 196 147 148 196 196 133 62 125 128 81 62 69 104 125 83 75 128 138 81 65
147 142 147 153 165 164 163 159 153 178 148 134 115 135 127 133 122 108 108 118 136 141 140 143 141 133 128 123 127 133 129 140 159 138 135 165 164 176 193 196 180 161 146 81 91 231 229 163 127 132 132 97 99 98 73 63 45 14 19 96 45 29
145 144 146 157 150 146 137 158 143 127 118 120 138 118 105 105 102 108 112 120 128 142 140 142 144 137 137 136 148 153 144 151 170 164 161 167 177 182 185 192 186 152 150 140 156 304 315 311 127 134 66 134 156 119 108 86 100 300 315 355 142 166
132 136 139 155 149 144 138 108 99 99 99 93 84 92 100 102 113 123 122 115 142 129 147 150 153 146 153 152 159 155 162 166 171 191 177 173 178 172 183 209 172 138 146 149 116 153 312 336 162 108 143 104 54 61 159 128 124 343 317 351 52 120
107 122 150 162 153 141 123 118 118 115 108 110 113 114 125 143 140 137 148 162 110 93 76 94 139 156 161 158 169 175 168 164 175 184 186 185 167 149 173 206 199 148 142 168 144 129 75 312 345 334 180 156 167 169 143 159 127 154 292 310 328 36
143 162 170 157 134 119 99 80 85 118 129 136 131 142 144 143 136 141 120 112 114 89 102 114 116 125 144 160 172 168 171 183 180 181 185 171 173 171 175 183 178 150 160 143 135 129 153 182 0 340 334 45 48 82 128 133 123 131 112 7 353 327
163 167 163 141 130 143 117 107 99 92 81 97 121 129 120 129 122 124 112 117 118 110 95 98 102 110 129 131 137 161 182 185 179 177 181 182 189 183 157 149 146 175 155 163 151 145 151 163 163 231 346 39 52 57 69 91 107 143 128 123 92 35
166 162 153 148 146 143 126 127 130 120 101 71 111 118 116 116 117 122 122 114 85 89 77 68 89 111 126 108 109 95 101 100 153 168 158 196 182 147 133 167 172 148 154 161 147 138 141 170 147 175 119 49 66 66 66 77 100 101 126 124 99 116
168 161 159 157 149 142 128 127 125 132 133 142 138 117 112 114 117 121 113 112 114 97 84 71 61 65 84 71 65 82 71 70 81 120 138 125 95 90 86 137 195 114 162 146 126 139 152 152 148 173 159 145 117 101 72 64 72 101 60 48 136 143
169 160 161 157 149 141 141 149 148 145 147 150 134 122 113 117 124 91 124 132 124 119 103 99 65 43 63 75 61 54 73 73 81 99 111 111 109 119 159 160 140 167 166 144 148 132 124 136 143 153 150 144 152 158 162 147 152 135 128 126 113 122
116 159 161 159 145 141 153 161 154 153 159 152 135 133 134 148 156 145 145 140 122 111 120 98 84 79 59 69 72 70 72 63 52 50 58 103 109 113 117 98 116 129 120 132 131 125 132 144 153 163 154 150 157 155 111 122 146 124 125 142 138 142
170 175 181 166 149 148 151 168 167 158 161 152 137 138 141 148 169 158 161 137 133 138 130 100 104 89 52 37 76 78 72 69 54 50 55 88 104 106 98 99 114 118 130 136 151 148 150 160 161 163 156 158 157 152 147 143 125 134 140 150 144 138
168 192 190 173 155 151 158 179 182 158 147 141 135 138 145 153 169 171 160 160 148 152 135 133 130 136 129 98 95 97 77 65 58 46 48 76 95 87 87 102 115 126 140 156 159 158 149 154 164 159 136 141 164 154 148 157 153 142 141 139 149 151
157 184 227 179 134 138 148 207 178 144 132 133 137 138 148 155 160 159 165 159 149 133 123 130 123 125 113 84 80 84 91 85 72 56 55 69 84 80 79 83 100 118 116 132 135 132 148 157 167 164 156 152 146 128 153 164 145 138 139 149 157 165
158 159 192 128 98 93 81 254 140 121 134 133 130 130 134 142 149 150 152 125 130 124 125 124 120 106 97 105 101 103 89 82 50 26 45 85 90 84 84 84 79 99 125 144 131 131 156 143 150 159 158 146 131 150 147 153 154 158 153 169 164 161
142 149 153 138 128 140 228 229 137 122 133 131 133 140 150 145 144 136 115 119 122 129 123 119 117 116 121 106 103 97 95 79 79 82 83 86 87 82 81 89 100 95 101 95 93 89 80 87 105 116 111 122 135 139 158 166 170 166 158 159 145 139